Weather History for Mumbai, India

Change the Weather History Date:

Thursday, January 3, 2013

  Actual Average Record
Temperature  
Mean Temperature 72 °F -  
Max Temperature 84 °F 85 °F 95 °F (1998)
Min Temperature 59 °F 66 °F 55 °F (2004)
Cooling Degree Days 6    
Growing Degree Days 22 (Base 50)    
Moisture  
Dew Point 54 °F    
Average Humidity 49    
Maximum Humidity 68    
Minimum Humidity 26    
Precipitation  
Precipitation 0.00 in - - ()
Sea Level Pressure  
Sea Level Pressure 29.92 in    
Wind  
Wind Speed 4 mph ()    
Max Wind Speed 12 mph    
Max Gust Speed -    
Visibility 1.7 miles    
Events      
Averages and records for this station are not official NWS values.
T = Trace of Precipitation, MM = Missing Value Source: Averaged Metar Reports

Daily Weather History Graph

Daily Weather History Graph

Search for Another Location

Airport:

Trip Planner

Search our weather history database for the weather conditions in past years. The results will help you decide how hot, cold, wet, or windy it might be!

Date:

Astronomy

Jan. 03, 2013 Rise Set
Actual Time 7:12 AM IST 6:13 PM IST
Civil Twilight 6:48 AM IST 6:37 PM IST
Nautical Twilight 6:21 AM IST 7:04 PM IST
Astronomical Twilight 5:54 AM IST 7:31 PM IST
Moon 11:27 PM IST (1/3) 10:59 AM IST (1/3)
Length of Visible Light 11h 48m
Length of Day
11h 01m
Waning Gibbous, 70% of the Moon is Illuminated
Jan 3
Waning Gibbous
Jan 5
Last Quarter
Jan 12
New
Jan 19
First Quarter
Jan 27
Full

Hourly Weather History & Observations

Time (IST) Temp. Heat Index Dew Point Humidity Pressure Visibility Wind Dir Wind Speed Gust Speed Precip Events Conditions
12:10 AM 73.4 °F - 50.0 °F 44% 29.92 in 1.9 mi NNW 4.6 mph - N/A   Smoke
12:40 AM 73.4 °F - 50.0 °F 44% 29.92 in 1.9 mi NW 3.5 mph - N/A   Smoke
1:10 AM 73.4 °F - 51.8 °F 47% 29.92 in 1.9 mi NW 3.5 mph - N/A   Smoke
1:40 AM 71.6 °F - 53.6 °F 53% 29.92 in 1.9 mi NNW 5.8 mph - N/A   Smoke
2:10 AM 71.6 °F - 53.6 °F 53% 29.92 in 1.9 mi NNE 3.5 mph - N/A   Smoke
2:30 AM 64 °F - 56 °F 68% 29.91 in 1 mi Calm Calm - -   Haze
2:40 AM 71.6 °F - 53.6 °F 53% 29.92 in 1.9 mi NNE 4.6 mph - N/A   Smoke
3:10 AM 69.8 °F - 53.6 °F 56% 29.89 in 1.9 mi North 3.5 mph - N/A   Smoke
3:40 AM 69.8 °F - 53.6 °F 56% 29.89 in 1.9 mi Calm Calm - N/A   Smoke
4:10 AM 69.8 °F - 53.6 °F 56% 29.89 in 1.9 mi North 4.6 mph - N/A   Smoke
4:40 AM 69.8 °F - 51.8 °F 53% 29.89 in 1.9 mi NNW 3.5 mph - N/A   Smoke
5:10 AM 69.8 °F - 51.8 °F 53% 29.89 in 1.9 mi NNE 5.8 mph - N/A   Smoke
5:30 AM 64 °F - 56 °F 68% 29.91 in 1 mi Calm Calm - -   Haze
5:40 AM 69.8 °F - 51.8 °F 53% 29.92 in 1.9 mi NNE 4.6 mph - N/A   Smoke
6:10 AM 69.8 °F - 50.0 °F 49% 29.92 in 1.9 mi North 4.6 mph - N/A   Smoke
6:40 AM 68.0 °F - 48.2 °F 49% 29.92 in 1.9 mi North 3.5 mph - N/A   Smoke
7:10 AM 68.0 °F - 46.4 °F 46% 29.95 in 1.9 mi NNW 4.6 mph - N/A   Smoke
7:40 AM 68.0 °F - 48.2 °F 49% 29.95 in 1.6 mi Calm Calm - N/A   Smoke
8:10 AM 68.0 °F - 48.2 °F 49% 29.95 in 1.4 mi Calm Calm - N/A   Smoke
8:30 AM 64 °F - 53 °F 57% 29.97 in 1 mi Calm Calm - -   Smoke
8:40 AM 69.8 °F - 50.0 °F 49% 29.98 in 1.3 mi Calm Calm - N/A   Smoke
9:10 AM 71.6 °F - 51.8 °F 50% 29.98 in 1.3 mi East 3.5 mph - N/A   Smoke
10:40 AM 78.8 °F - 51.8 °F 39% 29.98 in 1.7 mi SE 3.5 mph - N/A   Smoke
11:30 AM 80 °F - 51 °F 26% 29.96 in 1 mi West 4.6 mph - -   Smoke
11:40 AM 80.6 °F - 46.4 °F 30% 29.95 in 1.9 mi NNW 5.8 mph - N/A   Smoke
12:10 PM 80.6 °F 80.3 °F 53.6 °F 39% 29.95 in 1.9 mi West 8.1 mph - N/A   Smoke
12:40 PM 80.6 °F 80.5 °F 55.4 °F 42% 29.92 in 1.9 mi WSW 8.1 mph - N/A   Smoke
1:10 PM 80.6 °F 80.5 °F 55.4 °F 42% 29.92 in 1.9 mi West 8.1 mph - N/A   Smoke
1:40 PM 82.4 °F 81.7 °F 55.4 °F 39% 29.89 in 1.9 mi West 6.9 mph - N/A   Smoke
2:10 PM 82.4 °F 81.7 °F 55.4 °F 39% 29.89 in 2.2 mi West 11.5 mph - N/A   Smoke
2:30 PM 84 °F - 57 °F 30% 29.88 in 1 mi NW 4.6 mph - -   Smoke
2:40 PM 82.4 °F 81.7 °F 55.4 °F 39% 29.89 in 2.5 mi WNW 9.2 mph - N/A   Smoke
3:10 PM 82.4 °F 81.7 °F 55.4 °F 39% 29.86 in 2.5 mi WNW 8.1 mph - N/A   Smoke
3:40 PM 82.4 °F 81.7 °F 55.4 °F 39% 29.86 in 2.5 mi WNW 6.9 mph - N/A   Smoke
4:10 PM 82.4 °F 81.7 °F 55.4 °F 39% 29.86 in 2.5 mi WNW 6.9 mph - N/A   Smoke
4:40 PM 82.4 °F 81.7 °F 55.4 °F 39% 29.86 in 2.5 mi WNW 8.1 mph - N/A   Smoke
5:10 PM 80.6 °F 80.8 °F 57.2 °F 45% 29.86 in 2.2 mi WNW 8.1 mph - N/A   Smoke
5:30 PM 81 °F - 58 °F 35% 29.86 in 1 mi NW 4.6 mph - -   Smoke
6:10 PM 77.0 °F - 59.0 °F 54% 29.86 in 1.9 mi NW 5.8 mph - N/A   Smoke
6:40 PM 77.0 °F - 57.2 °F 50% 29.89 in 1.6 mi NW 5.8 mph - N/A   Smoke
7:10 PM 77.0 °F - 57.2 °F 50% 29.89 in 1.6 mi NW 5.8 mph - N/A   Smoke
7:40 PM 75.2 °F - 57.2 °F 53% 29.92 in 1.6 mi NNW 5.8 mph - N/A   Smoke
8:10 PM 75.2 °F - 59.0 °F 57% 29.92 in 1.6 mi NW 6.9 mph - N/A   Smoke
8:30 PM 73 °F - 56 °F 45% 29.92 in 1 mi NW 4.6 mph - -   Smoke
8:40 PM 75.2 °F - 60.8 °F 61% 29.92 in 1.6 mi NNW 5.8 mph - N/A   Haze
9:10 PM 73.4 °F - 59.0 °F 61% 29.95 in 1.6 mi NNW 3.5 mph - N/A   Smoke
9:40 PM 73.4 °F - 55.4 °F 53% 29.95 in 1.6 mi Calm Calm - N/A   Smoke
10:10 PM 73.4 °F - 57.2 °F 57% 29.95 in 1.6 mi NNW 4.6 mph - N/A   Smoke
10:40 PM 71.6 °F - 57.2 °F 60% 29.95 in 1.6 mi South 3.5 mph - N/A   Smoke
11:10 PM 69.8 °F - 53.6 °F 56% 29.95 in 1.2 mi NNW 4.6 mph - N/A   Smoke
11:30 PM 67 °F - 54 °F 55% 29.95 in 1 mi North 3.5 mph - -   Smoke
11:40 PM 69.8 °F - 53.6 °F 56% 29.95 in 1.3 mi NW 3.5 mph - N/A   Smoke